Total_Precipitation_Accumulation
0.71 0.72 0.72 0.61 0.49 0.47 0.47 0.45 0.45 0.49 0.55 0.56 0.59 0.65 0.65 0.67 0.69 0.70 0.75 0.81 0.88 0.99 1.04 1.17 1.38 1.57 1.62 1.63 1.68 1.74 1.77 1.63 1.37 1.23 1.01 0.98 1.12 1.14 1.14 1.07 1.15 1.20 0.99
0.66 0.62 0.58 0.51 0.44 0.43 0.41 0.38 0.40 0.45 0.47 0.49 0.54 0.58 0.58 0.64 0.66 0.66 0.66 0.68 0.77 0.85 0.85 0.86 0.97 1.18 1.34 1.47 1.56 1.59 1.65 1.63 1.50 1.46 1.34 1.10 1.06 1.13 1.26 1.33 1.27 1.23 1.19
0.72 0.61 0.57 0.53 0.49 0.47 0.42 0.41 0.41 0.48 0.59 0.62 0.61 0.64 0.62 0.64 0.64 0.65 0.68 0.69 0.72 0.76 0.79 0.81 0.87 0.97 1.13 1.22 1.33 1.44 1.52 1.63 1.62 1.44 1.46 1.39 1.20 1.18 1.25 1.33 1.38 1.47 1.36
0.92 0.78 0.69 0.61 0.54 0.48 0.44 0.43 0.42 0.45 0.51 0.54 0.63 0.71 0.79 0.83 0.82 0.78 0.77 0.75 0.70 0.72 0.78 0.85 0.87 0.87 0.99 1.21 1.34 1.41 1.43 1.53 1.65 1.59 1.52 1.50 1.35 1.27 1.28 1.31 1.44 1.54 1.54
0.94 0.81 0.67 0.56 0.45 0.43 0.46 0.49 0.46 0.41 0.44 0.45 0.53 0.62 0.72 0.81 0.86 0.86 0.72 0.61 0.62 0.67 0.68 0.69 0.76 0.84 0.86 1.02 1.19 1.41 1.42 1.52 1.59 1.66 1.58 1.44 1.32 1.25 1.21 1.22 1.32 1.51 1.57
0.76 0.72 0.56 0.50 0.44 0.40 0.42 0.48 0.49 0.39 0.38 0.40 0.44 0.42 0.45 0.50 0.66 0.66 0.54 0.45 0.50 0.60 0.67 0.69 0.69 0.70 0.73 0.77 0.82 1.06 1.25 1.36 1.45 1.48 1.52 1.39 1.28 1.22 1.30 1.30 1.25 1.31 1.42
0.46 0.47 0.37 0.35 0.42 0.43 0.45 0.44 0.38 0.31 0.34 0.36 0.32 0.28 0.30 0.34 0.39 0.38 0.43 0.45 0.48 0.52 0.61 0.70 0.74 0.72 0.78 0.87 0.83 0.87 0.96 1.03 1.14 1.26 1.30 1.25 1.22 1.18 1.27 1.31 1.28 1.23 1.15
0.22 0.18 0.15 0.22 0.32 0.33 0.31 0.28 0.24 0.23 0.29 0.36 0.31 0.29 0.33 0.30 0.32 0.37 0.40 0.43 0.56 0.62 0.61 0.62 0.73 0.79 0.84 1.00 0.99 1.06 0.99 0.89 0.87 0.92 1.06 1.12 1.08 1.18 1.28 1.44 1.50 1.37 1.27
0.04 0.04 0.05 0.07 0.08 0.07 0.07 0.08 0.12 0.16 0.20 0.19 0.23 0.37 0.38 0.34 0.42 0.40 0.35 0.42 0.55 0.62 0.58 0.61 0.73 0.83 0.97 1.08 1.13 1.16 1.05 0.95 0.98 1.05 1.13 1.20 1.22 1.28 1.35 1.42 1.47 1.46 1.37
0.02 0.02 0.02 0.03 0.03 0.02 0.03 0.02 0.04 0.07 0.10 0.11 0.14 0.27 0.34 0.36 0.36 0.28 0.28 0.40 0.53 0.61 0.62 0.63 0.85 0.86 0.94 1.00 1.06 1.18 1.20 1.06 0.98 1.01 1.06 1.09 1.08 1.16 1.35 1.37 1.48 1.55 1.41
0.03 0.02 0.01 0.02 0.02 0.03 0.04 0.03 0.02 0.02 0.03 0.06 0.10 0.14 0.15 0.16 0.16 0.17 0.24 0.31 0.38 0.50 0.58 0.62 0.60 0.72 0.75 0.85 0.97 1.05 1.26 1.14 1.07 1.08 1.06 0.96 0.93 0.99 1.11 1.28 1.42 1.49 1.43
0.02 0.02 0.02 0.02 0.02 0.02 0.05 0.04 0.03 0.02 0.02 0.03 0.06 0.10 0.09 0.08 0.07 0.10 0.13 0.17 0.24 0.32 0.40 0.52 0.52 0.60 0.65 0.73 0.75 0.92 1.10 1.08 1.01 1.08 1.07 1.01 0.92 0.91 0.94 1.01 1.17 1.25 1.22
0.04 0.03 0.02 0.02 0.02 0.02 0.03 0.03 0.03 0.03 0.02 0.03 0.05 0.08 0.09 0.10 0.09 0.09 0.11 0.14 0.19 0.23 0.26 0.41 0.49 0.56 0.55 0.55 0.67 0.85 0.91 0.96 1.09 1.06 1.07 1.01 0.92 0.89 0.83 0.86 0.97 1.06 1.04
0.04 0.04 0.04 0.04 0.03 0.03 0.03 0.03 0.03 0.02 0.02 0.03 0.04 0.07 0.11 0.13 0.09 0.09 0.13 0.17 0.20 0.22 0.25 0.38 0.50 0.57 0.55 0.55 0.62 0.75 0.81 0.94 1.08 1.01 0.98 0.92 0.86 0.86 0.84 0.83 0.87 0.93 0.99
0.05 0.05 0.04 0.05 0.05 0.05 0.04 0.04 0.03 0.03 0.03 0.03 0.04 0.06 0.06 0.07 0.08 0.12 0.15 0.20 0.23 0.24 0.33 0.50 0.63 0.65 0.65 0.61 0.65 0.75 0.74 0.72 0.81 0.81 0.84 0.85 0.83 0.82 0.79 0.73 0.76 0.79 0.83
0.05 0.05 0.04 0.04 0.05 0.05 0.05 0.05 0.04 0.04 0.04 0.04 0.04 0.05 0.05 0.07 0.09 0.14 0.18 0.23 0.25 0.35 0.52 0.69 0.81 0.89 0.88 0.80 0.76 0.75 0.69 0.67 0.67 0.70 0.79 0.79 0.76 0.79 0.79 0.72 0.73 0.75 0.77
0.03 0.03 0.03 0.03 0.03 0.03 0.04 0.05 0.06 0.05 0.04 0.04 0.04 0.05 0.06 0.08 0.13 0.20 0.26 0.30 0.35 0.57 0.80 0.84 0.87 0.91 0.93 0.87 0.76 0.68 0.58 0.52 0.55 0.61 0.64 0.66 0.69 0.69 0.74 0.73 0.72 0.70 0.67
0.03 0.04 0.04 0.04 0.04 0.04 0.04 0.05 0.07 0.09 0.08 0.06 0.05 0.05 0.06 0.09 0.16 0.26 0.38 0.49 0.54 0.69 0.83 0.86 0.93 0.92 0.88 0.77 0.63 0.54 0.45 0.43 0.46 0.48 0.48 0.46 0.52 0.57 0.62 0.67 0.69 0.67 0.63
0.03 0.04 0.04 0.05 0.05 0.05 0.04 0.04 0.05 0.06 0.07 0.07 0.08 0.07 0.07 0.09 0.12 0.18 0.26 0.32 0.34 0.41 0.49 0.54 0.59 0.59 0.55 0.48 0.43 0.39 0.36 0.35 0.36 0.38 0.40 0.41 0.46 0.48 0.49 0.54 0.61 0.67 0.68
0.05 0.05 0.05 0.05 0.06 0.06 0.05 0.06 0.06 0.06 0.06 0.07 0.08 0.09 0.10 0.12 0.14 0.15 0.16 0.18 0.20 0.22 0.24 0.26 0.27 0.28 0.28 0.29 0.31 0.32 0.34 0.35 0.37 0.39 0.42 0.42 0.46 0.49 0.47 0.48 0.53 0.59 0.62
0.05 0.06 0.06 0.06 0.05 0.06 0.06 0.07 0.08 0.08 0.07 0.08 0.08 0.10 0.12 0.14 0.15 0.17 0.18 0.20 0.21 0.21 0.21 0.22 0.23 0.24 0.25 0.28 0.32 0.35 0.37 0.38 0.38 0.40 0.43 0.43 0.44 0.49 0.50 0.52 0.54 0.58 0.61
0.04 0.05 0.06 0.06 0.06 0.06 0.06 0.06 0.07 0.08 0.09 0.10 0.10 0.10 0.13 0.16 0.19 0.20 0.20 0.22 0.24 0.25 0.24 0.24 0.25 0.27 0.29 0.31 0.36 0.41 0.43 0.43 0.43 0.43 0.45 0.47 0.48 0.49 0.49 0.51 0.54 0.59 0.62
0.06 0.07 0.07 0.07 0.07 0.08 0.08 0.07 0.08 0.09 0.10 0.11 0.11 0.11 0.13 0.15 0.17 0.19 0.20 0.21 0.24 0.24 0.23 0.24 0.26 0.28 0.28 0.30 0.35 0.41 0.45 0.48 0.50 0.50 0.51 0.52 0.53 0.54 0.56 0.55 0.53 0.55 0.59
0.07 0.08 0.09 0.09 0.09 0.10 0.10 0.10 0.11 0.11 0.12 0.12 0.12 0.12 0.13 0.13 0.15 0.16 0.18 0.21 0.24 0.25 0.25 0.25 0.26 0.28 0.30 0.32 0.36 0.38 0.41 0.45 0.51 0.56 0.59 0.60 0.58 0.58 0.61 0.62 0.60 0.60 0.67
0.07 0.08 0.08 0.10 0.11 0.12 0.12 0.12 0.13 0.14 0.14 0.15 0.15 0.15 0.16 0.17 0.19 0.21 0.24 0.24 0.26 0.27 0.26 0.26 0.27 0.28 0.31 0.33 0.36 0.38 0.44 0.47 0.48 0.53 0.58 0.62 0.60 0.62 0.65 0.65 0.66 0.69 0.73
0.07 0.08 0.09 0.11 0.11 0.11 0.12 0.12 0.14 0.15 0.16 0.17 0.17 0.19 0.22 0.24 0.24 0.25 0.28 0.30 0.31 0.31 0.31 0.31 0.31 0.30 0.29 0.30 0.32 0.36 0.43 0.45 0.47 0.51 0.56 0.62 0.67 0.67 0.69 0.71 0.68 0.67 0.69